Weather Roundup
Issued by NWS

Home | Current Version | Previous Version | Text Only | Print | Product List | Glossary On
Versions: 1 2 3 4 5 6 7 8 9 10 11 12 13 14 15 16 17 18 19 20 21 22 23 24 25 26 27 28 29 30 31 32 33 34 35 36 37 38 39 40 41 42 43 44 45 46 47 48 49 50
000
NZUS93 KARX 260010
HRRWXR

CURRENT HOURLY OBSERVATIONS ACROSS
MUCH OF THE UPPER MISSISSIPPI VALLEY
NATIONAL WEATHER SERVICE LA CROSSE WI
700 PM CDT MON MAY 25 2015


...SOUTHEAST MINNESOTA...


CITY           SKY/WX    TMP DP  RH WIND       PRES   REMARKS
ROCHESTER      MOSUNNY   72  62  71 CALM      29.77F
ROCHESTER/MAYO FAIR      69  61  76 CALM      29.76F
WINONA         MOSUNNY   73  57  56 W6        29.76F
AUSTIN         SUNNY     73  57  56 SW16G22   29.75F
ALBERT LEA     SUNNY     75  57  53 S9        29.75S
DODGE CENTER   MOSUNNY   70  63  78 SW5       29.75F
PRESTON        MOSUNNY   73  60  64 SW7       29.78F
OWATONNA       MOSUNNY   70  63  78 SE5       29.74F THUNDER
FARIBAULT      PTSUNNY   70  63  78 W9        29.76R
$$

...ELSEWHERE IN MINNESOTA...


CITY           SKY/WX    TMP DP  RH WIND       PRES   REMARKS
MINNEAPOLIS    MOSUNNY   72  57  59 SW10      29.72F
INTNL FALLS    LGT RAIN  58  54  86 SE7       29.80R
DULUTH         LGT RAIN  49  48  97 E7        29.74R FOG
RED WING       PTSUNNY   72  63  73 SW3       29.73S
REDWOOD FALLS  SUNNY     69  58  67 W16       29.74S
MANKATO        PTSUNNY   70  61  73 NW7       29.74S
WORTHINGTON    MOSUNNY   66  57  72 NW8       29.77R
FAIRMONT       MOSUNNY   77  52  41 SW14      29.73S
$$

...SOUTHWEST WISCONSIN...


CITY           SKY/WX    TMP DP  RH WIND       PRES   REMARKS
LA CROSSE      MOSUNNY   74  63  68 SW5       29.76F
PRAIRIE DU CHI MOSUNNY   76  59  55 S7        29.79F
BOSCOBEL       MOSUNNY   79  61  53 SW12G22   29.80F
LONE ROCK      MOSUNNY   76  61  59 SW10      29.82S
PLATTEVILLE    MOSUNNY   75  64  68 S14       29.85F
FORT MC COY    MOSUNNY   68  60  76 CALM      29.79F
CAMP DOUGLAS   PTSUNNY   70  66  88 NW5       29.79S
VIROQUA        FAIR      75  59  58 SW15      29.81S
WIS DELLS      MOSUNNY   75  59  57 SW13      29.81F
$$

...ELSEWHERE IN WISCONSIN...


CITY           SKY/WX    TMP DP  RH WIND       PRES   REMARKS
MILWAUKEE      PTSUNNY   76  60  57 SW21G28   29.87R
MADISON        PTSUNNY   76  60  57 SW9       29.84S
GREEN BAY      PTSUNNY   75  63  66 SW12      29.78R
EAU CLAIRE     TSTM      66  62  87 SW6       29.75R
BLACK RVR FLS  CLOUDY    69  63  80 S3        29.77F
MEDFORD        DRIZZLE   67  60  76 SW5       29.77S
WAUSAU         MOSUNNY   71  60  68 SW7       29.76R
WIS RAPIDS     RAIN      66  60  81 W13       29.81F
MARSHFIELD     CLOUDY    70  59  68 SW12      29.79R
RICE LAKE      PTSUNNY   67  57  70 SW3       29.76R
$$

...NORTHEAST IOWA...


CITY           SKY/WX    TMP DP  RH WIND       PRES   REMARKS
DECORAH        PTSUNNY   75  61  60 SW9G16    29.78F
MASON CITY     SUNNY     76  58  53 SW12      29.78S
CHARLES CITY   SUNNY     75  61  60 SW13G23   29.78F
OELWEIN        MOSUNNY   75  63  64 SW16      29.81S
$$

...ELSEWHERE IN IOWA...


CITY           SKY/WX    TMP DP  RH WIND       PRES   REMARKS
DES MOINES     CLOUDY    77  63  61 S15       29.79R
IOWA CITY      MOSUNNY   77  63  61 S14       29.85F
FORT DODGE     MOSUNNY   75  57  53 SW9       29.78R
$$

...NORTHERN ILLINOIS...


CITY           SKY/WX    TMP DP  RH WIND       PRES   REMARKS
CHICAGO-OHARE  PTSUNNY   77  60  55 SW13G22   29.91S
CHICAGO-MIDWAY PTSUNNY   81  61  50 SW12      29.92S
MOLINE         MOSUNNY   77  60  55 S13G22    29.86F
ROCKFORD       MOSUNNY   80  62  54 SW14G20   29.89F
PEORIA         MOSUNNY   82  60  47 S12       29.90F
$$

NOTE: "FAIR" INDICATES FEW OR NO CLOUDS BELOW 12,000 FEET WITH NO
SIGNIFICANT WEATHER AND/OR OBSTRUCTIONS TO VISIBILITY. WIND
SPEEDS ARE IN MILES-PER-HOUR.



USA.gov is the U.S. government's official web portal to all federal, state and local government web resources and services.